User: anonymous   Login
Location: Brunembert
(50.7122°N, 1.8935°E)
Time: 20:44:21
(UTC+00:00)
Language:

NOSS 2-2 (E) - Orbit

View from above orbital plane
View from above orbital plane
View from above satellite
View from above satellite

Ground track
Ground track

The orbit data is extracted from the following two-line orbital elements,

1 21809U 91076E   21122.85812316 0.00000400  00000-0  67619-4 0    05
2 21809  63.3285  31.7745 0860384  40.7201 319.2799 13.41713295    05
Epoch (UTC): 02 May 2021 20:35:41
Eccentricity: 0.0860384
inclination: 63.3285°
perigee height: 459 km
apogee height: 1746 km
right ascension of ascending node: 31.7745°
argument of perigee: 40.7201°
revolutions per day: 13.41713295
mean anomaly at epoch: 319.2799°
orbit number at epoch: 0

The dashed part of the orbit path shows where the satellite is in the earth's shadow,  

DLR